sat.trackr.live / text

‹ back to catalog

STARLINK-11156 [DTC]

NORAD 61056 · 2024-164G

PAYLOAD ACTIVE UNKNOWN

§ Identity

Operator
Country
US
Launch date
2024-09-13
Launch site
AFWTR
Launch vehicle
Mass (kg)
RCS (m²)

Purposes: comms

External: N2YO · Heavens-Above · Gunter

§ Orbital elements

Epoch: 2026-09-21T17:31:04.706112Z

Period
91.74 min
Inclination
53.1603°
Eccentricity
0.0000924
Mean motion
15.69699790 rev/d
Perigee alt
359.1 km
Apogee alt
360.4 km
Semi-major
6,737.9 km
B*
7.7139e-6
RAAN
64.5352°
Arg perigee
60.7931°
Mean anomaly
299.3179°
Rev number
11,621

§ Raw data

STARLINK-11156 [DTC]1 61056U 24164G   26264.72991558  .00000346  00000+0  77139-5 0  99952 61056  53.1603  64.5352 0000924  60.7931 299.3179 15.69699790116216

JSON: /api/v1/satellites/61056 · /tle

For live sub-satellite position, see the globe view (requires WebGL).

§ Visibility from observer

Set your observer location to see the next 7 days of passes ≥ 10°. The values pass through the URL so the page stays shareable.

No JS? Fill the form by hand. The geolocation button needs JavaScript.